Time,TemperatureF,DewpointF,PressureIn,WindDirection,WindDirectionDegrees,WindSpeedMPH,WindSpeedGustMPH,Humidity,HourlyPrecipIn,Conditions,Clouds,dailyrainin,SoftwareType,DateUTC
2013-02-20 00:04:00,39.2,24.8,29.50,NNW,340,6.9,-999.9,56,-99.99,,,-99.99,,2013-02-20 05:04:00,
2013-02-20 00:08:00,39.2,24.8,29.50,NNW,340,6.9,-999.9,56,-99.99,,,-99.99,,2013-02-20 05:08:00,
2013-02-20 00:10:00,37.4,23.0,29.50,NW,315,5.8,-999.9,56,-99.99,,,-99.99,,2013-02-20 05:10:00,
2013-02-20 00:18:00,37.4,23.0,29.50,NW,315,5.8,-999.9,56,-99.99,,,-99.99,,2013-02-20 05:18:00,
2013-02-20 00:20:00,37.4,21.2,29.50,NW,309,13.8,-999.9,52,-99.99,,,-99.99,,2013-02-20 05:20:00,
2013-02-20 00:28:00,37.4,21.2,29.50,NW,309,13.8,-999.9,52,-99.99,,,-99.99,,2013-02-20 05:28:00,
2013-02-20 00:34:00,37.4,21.2,29.50,NNW,334,6.9,-999.9,52,-99.99,,,-99.99,,2013-02-20 05:34:00,
2013-02-20 00:39:00,37.4,21.2,29.50,NNW,334,6.9,-999.9,52,-99.99,,,-99.99,,2013-02-20 05:39:00,
2013-02-20 00:48:00,37.4,21.2,29.50,WNW,302,5.8,-999.9,52,-99.99,,,-99.99,,2013-02-20 05:48:00,
2013-02-20 00:54:00,37.4,21.2,29.50,NW,325,9.2,-999.9,52,-99.99,,,-99.99,,2013-02-20 05:54:00,
2013-02-20 01:00:00,37.4,21.2,29.50,WNW,292,9.2,-999.9,52,-99.99,,,-99.99,,2013-02-20 06:00:00,
2013-02-20 01:08:00,37.4,21.2,29.50,WNW,292,9.2,-999.9,52,-99.99,,,-99.99,,2013-02-20 06:08:00,
2013-02-20 01:23:00,35.6,19.4,29.51,WNW,292,10.4,-999.9,52,-99.99,,,-99.99,,2013-02-20 06:23:00,
2013-02-20 01:28:00,35.6,19.4,29.51,WNW,292,10.4,-999.9,52,-99.99,,,-99.99,,2013-02-20 06:28:00,
2013-02-20 01:34:00,35.6,19.4,29.51,NW,317,6.9,-999.9,52,-99.99,,,-99.99,,2013-02-20 06:34:00,
2013-02-20 01:40:00,35.6,19.4,29.51,WNW,293,10.4,-999.9,52,-99.99,,,-99.99,,2013-02-20 06:40:00,
2013-02-20 01:45:00,35.6,19.4,29.51,WNW,293,10.4,-999.9,52,-99.99,,,-99.99,,2013-02-20 06:45:00,
2013-02-20 02:14:00,35.6,21.2,29.52,NW,319,5.8,-999.9,56,-99.99,,,-99.99,,2013-02-20 07:14:00,
2013-02-20 02:20:00,35.6,21.2,29.52,NW,319,5.8,-999.9,56,-99.99,,,-99.99,,2013-02-20 07:20:00,
2013-02-20 02:28:00,35.6,19.4,29.52,NW,318,13.8,-999.9,52,-99.99,,,-99.99,,2013-02-20 07:28:00,
2013-02-20 02:34:00,35.6,19.4,29.52,NW,311,10.4,-999.9,52,-99.99,,,-99.99,,2013-02-20 07:34:00,
2013-02-20 02:40:00,35.6,21.2,29.52,NW,313,15.0,-999.9,56,-99.99,,,-99.99,,2013-02-20 07:40:00,
2013-02-20 02:48:00,35.6,21.2,29.52,NW,313,15.0,-999.9,56,-99.99,,,-99.99,,2013-02-20 07:48:00,
2013-02-20 03:00:00,33.8,17.6,29.53,NW,312,16.1,-999.9,52,-99.99,,,-99.99,,2013-02-20 08:00:00,
2013-02-20 03:10:00,33.8,17.6,29.53,NW,307,5.8,-999.9,52,-99.99,,,-99.99,,2013-02-20 08:10:00,
2013-02-20 03:18:00,33.8,17.6,29.53,NW,307,5.8,-999.9,52,-99.99,,,-99.99,,2013-02-20 08:18:00,
2013-02-20 03:24:00,33.8,17.6,29.53,WNW,299,5.8,-999.9,52,-99.99,,,-99.99,,2013-02-20 08:24:00,
2013-02-20 03:30:00,33.8,19.4,29.53,WNW,303,12.7,-999.9,56,-99.99,,,-99.99,,2013-02-20 08:30:00,
2013-02-20 03:38:00,33.8,19.4,29.53,WNW,303,12.7,-999.9,56,-99.99,,,-99.99,,2013-02-20 08:38:00,
2013-02-20 03:43:00,33.8,19.4,29.53,WNW,285,5.8,-999.9,56,-99.99,,,-99.99,,2013-02-20 08:43:00,
2013-02-20 03:50:00,33.8,19.4,29.53,WNW,285,5.8,-999.9,56,-99.99,,,-99.99,,2013-02-20 08:50:00,
2013-02-20 03:57:00,33.8,19.4,29.53,NW,319,4.6,-999.9,56,-99.99,,,-99.99,,2013-02-20 08:57:00,
2013-02-20 04:04:00,33.8,19.4,29.53,NW,309,3.5,-999.9,56,-99.99,,,-99.99,,2013-02-20 09:04:00,
2013-02-20 04:10:00,33.8,19.4,29.54,NW,324,8.1,-999.9,56,-99.99,,,-99.99,,2013-02-20 09:10:00,
2013-02-20 04:18:00,33.8,19.4,29.54,NW,324,8.1,-999.9,56,-99.99,,,-99.99,,2013-02-20 09:18:00,
2013-02-20 04:24:00,32.0,19.4,29.54,WNW,294,4.6,-999.9,60,-99.99,,,-99.99,,2013-02-20 09:24:00,
2013-02-20 04:30:00,32.0,17.6,29.54,NW,309,12.7,-999.9,55,-99.99,,,-99.99,,2013-02-20 09:30:00,
2013-02-20 04:38:00,32.0,17.6,29.54,NW,309,12.7,-999.9,55,-99.99,,,-99.99,,2013-02-20 09:38:00,
2013-02-20 04:44:00,32.0,19.4,29.55,NW,323,5.8,-999.9,60,-99.99,,,-99.99,,2013-02-20 09:44:00,
2013-02-20 04:49:00,32.0,19.4,29.55,NW,323,5.8,-999.9,60,-99.99,,,-99.99,,2013-02-20 09:49:00,
2013-02-20 04:57:00,32.0,19.4,29.55,NW,316,6.9,-999.9,60,-99.99,,,-99.99,,2013-02-20 09:57:00,
2013-02-20 05:04:00,32.0,17.6,29.56,WNW,300,8.1,-999.9,55,-99.99,,,-99.99,,2013-02-20 10:04:00,
2013-02-20 05:10:00,32.0,17.6,29.56,WNW,284,3.5,-999.9,55,-99.99,,,-99.99,,2013-02-20 10:10:00,
2013-02-20 05:18:00,32.0,17.6,29.56,WNW,284,3.5,-999.9,55,-99.99,,,-99.99,,2013-02-20 10:18:00,
2013-02-20 05:24:00,32.0,17.6,29.56,NW,308,9.2,-999.9,55,-99.99,,,-99.99,,2013-02-20 10:24:00,
2013-02-20 05:30:00,32.0,17.6,29.56,NW,308,9.2,-999.9,55,-99.99,,,-99.99,,2013-02-20 10:30:00,
2013-02-20 05:38:00,32.0,17.6,29.57,NW,309,10.4,-999.9,55,-99.99,,,-99.99,,2013-02-20 10:38:00,
2013-02-20 05:43:00,32.0,17.6,29.57,NW,307,9.2,-999.9,55,-99.99,,,-99.99,,2013-02-20 10:43:00,
2013-02-20 05:50:00,32.0,17.6,29.57,NW,307,9.2,-999.9,55,-99.99,,,-99.99,,2013-02-20 10:50:00,
2013-02-20 05:58:00,32.0,17.6,29.57,NW,309,10.4,-999.9,55,-99.99,,,-99.99,,2013-02-20 10:58:00,
2013-02-20 06:03:00,30.2,15.8,29.58,NW,306,8.1,-999.9,55,-99.99,,,-99.99,,2013-02-20 11:03:00,
2013-02-20 06:10:00,30.2,15.8,29.58,NW,306,8.1,-999.9,55,-99.99,,,-99.99,,2013-02-20 11:10:00,
2013-02-20 06:17:00,30.2,15.8,29.58,NNW,327,4.6,-999.9,55,-99.99,,,-99.99,,2013-02-20 11:17:00,
2013-02-20 06:24:00,30.2,14.0,29.59,NW,326,9.2,-999.9,51,-99.99,,,-99.99,,2013-02-20 11:24:00,
2013-02-20 06:30:00,30.2,14.0,29.60,NW,323,4.6,-999.9,51,-99.99,,,-99.99,,2013-02-20 11:30:00,
2013-02-20 06:37:00,30.2,14.0,29.60,NW,323,4.6,-999.9,51,-99.99,,,-99.99,,2013-02-20 11:37:00,
2013-02-20 06:44:00,30.2,14.0,29.60,WNW,291,4.6,-999.9,51,-99.99,,,-99.99,,2013-02-20 11:44:00,
2013-02-20 06:50:00,30.2,14.0,29.61,NW,321,6.9,-999.9,51,-99.99,,,-99.99,,2013-02-20 11:50:00,
2013-02-20 06:58:00,30.2,14.0,29.61,NW,321,6.9,-999.9,51,-99.99,,,-99.99,,2013-02-20 11:58:00,
2013-02-20 07:04:00,30.2,12.2,29.61,WNW,294,8.1,-999.9,47,-99.99,,,-99.99,,2013-02-20 12:04:00,
2013-02-20 07:10:00,30.2,12.2,29.61,WNW,294,8.1,-999.9,47,-99.99,,,-99.99,,2013-02-20 12:10:00,
2013-02-20 07:18:00,30.2,14.0,29.62,NNW,335,13.8,-999.9,51,-99.99,,,-99.99,,2013-02-20 12:18:00,
2013-02-20 07:24:00,30.2,14.0,29.62,NW,318,9.2,-999.9,51,-99.99,,,-99.99,,2013-02-20 12:24:00,
2013-02-20 07:29:00,30.2,14.0,29.62,NW,318,9.2,-999.9,51,-99.99,,,-99.99,,2013-02-20 12:29:00,
2013-02-20 07:38:00,30.2,14.0,29.62,NNW,328,9.2,-999.9,51,-99.99,,,-99.99,,2013-02-20 12:38:00,
2013-02-20 07:44:00,30.2,15.8,29.63,WNW,287,3.5,-999.9,55,-99.99,,,-99.99,,2013-02-20 12:44:00,
2013-02-20 07:50:00,30.2,15.8,29.63,NW,318,2.3,-999.9,55,-99.99,,,-99.99,,2013-02-20 12:50:00,
2013-02-20 07:58:00,30.2,15.8,29.63,NW,318,2.3,-999.9,55,-99.99,,,-99.99,,2013-02-20 12:58:00,
2013-02-20 08:04:00,30.2,15.8,29.63,NNW,342,8.1,-999.9,55,-99.99,,,-99.99,,2013-02-20 13:04:00,
2013-02-20 08:10:00,30.2,15.8,29.63,NW,317,12.7,-999.9,55,-99.99,,,-99.99,,2013-02-20 13:10:00,
2013-02-20 08:18:00,30.2,15.8,29.63,NW,317,12.7,-999.9,55,-99.99,,,-99.99,,2013-02-20 13:18:00,
2013-02-20 08:24:00,30.2,15.8,29.63,NW,326,12.7,-999.9,55,-99.99,,,-99.99,,2013-02-20 13:24:00,
2013-02-20 08:34:00,30.2,15.8,29.63,NNW,328,10.4,-999.9,55,-99.99,,,-99.99,,2013-02-20 13:34:00,
2013-02-20 08:40:00,30.2,14.0,29.63,WNW,299,3.5,-999.9,51,-99.99,,,-99.99,,2013-02-20 13:40:00,
2013-02-20 08:47:00,30.2,14.0,29.63,WNW,299,3.5,-999.9,51,-99.99,,,-99.99,,2013-02-20 13:47:00,
2013-02-20 08:54:00,30.2,14.0,29.63,NW,318,9.2,-999.9,51,-99.99,,,-99.99,,2013-02-20 13:54:00,
2013-02-20 09:00:00,30.2,14.0,29.63,NW,318,9.2,-999.9,51,-99.99,,,-99.99,,2013-02-20 14:00:00,
2013-02-20 09:08:00,30.2,14.0,29.63,WNW,287,4.6,-999.9,51,-99.99,,,-99.99,,2013-02-20 14:08:00,
2013-02-20 09:14:00,30.2,12.2,29.62,NNW,333,12.7,-999.9,47,-99.99,,,-99.99,,2013-02-20 14:14:00,
2013-02-20 09:24:00,30.2,12.2,29.62,NNW,333,12.7,-999.9,47,-99.99,,,-99.99,,2013-02-20 14:24:00,
2013-02-20 09:30:00,30.2,12.2,29.62,NW,312,10.4,-999.9,47,-99.99,,,-99.99,,2013-02-20 14:30:00,
2013-02-20 09:38:00,30.2,10.4,29.62,WNW,301,9.2,-999.9,44,-99.99,,,-99.99,,2013-02-20 14:38:00,
2013-02-20 09:44:00,30.2,8.6,29.62,NNW,330,13.8,-999.9,40,-99.99,,,-99.99,,2013-02-20 14:44:00,
2013-02-20 09:50:00,30.2,10.4,29.62,WNW,300,6.9,-999.9,44,-99.99,,,-99.99,,2013-02-20 14:50:00,
2013-02-20 09:58:00,30.2,10.4,29.62,WNW,300,6.9,-999.9,44,-99.99,,,-99.99,,2013-02-20 14:58:00,
2013-02-20 10:04:00,30.2,8.6,29.62,NNW,344,3.5,-999.9,40,-99.99,,,-99.99,,2013-02-20 15:04:00,
2013-02-20 10:10:00,30.2,8.6,29.62,NW,323,4.6,-999.9,40,-99.99,,,-99.99,,2013-02-20 15:10:00,
2013-02-20 10:18:00,30.2,8.6,29.62,NW,323,4.6,-999.9,40,-99.99,,,-99.99,,2013-02-20 15:18:00,
2013-02-20 10:23:00,30.2,8.6,29.63,NW,315,11.5,-999.9,40,-99.99,,,-99.99,,2013-02-20 15:23:00,
2013-02-20 10:30:00,30.2,8.6,29.63,NNW,328,8.1,-999.9,40,-99.99,,,-99.99,,2013-02-20 15:30:00,
2013-02-20 10:38:00,30.2,8.6,29.63,NNW,328,8.1,-999.9,40,-99.99,,,-99.99,,2013-02-20 15:38:00,
2013-02-20 10:44:00,30.2,8.6,29.62,NNW,332,12.7,-999.9,40,-99.99,,,-99.99,,2013-02-20 15:44:00,
2013-02-20 10:50:00,30.2,8.6,29.62,NNW,332,12.7,-999.9,40,-99.99,,,-99.99,,2013-02-20 15:50:00,
2013-02-20 10:58:00,30.2,8.6,29.62,WNW,289,5.8,-999.9,40,-99.99,,,-99.99,,2013-02-20 15:58:00,
2013-02-20 11:03:00,30.2,8.6,29.62,NNW,347,8.1,-999.9,40,-99.99,,,-99.99,,2013-02-20 16:03:00,
2013-02-20 11:10:00,30.2,6.8,29.62,NNW,344,16.1,-999.9,37,-99.99,,,-99.99,,2013-02-20 16:10:00,
2013-02-20 11:18:00,30.2,6.8,29.62,NNW,344,16.1,-999.9,37,-99.99,,,-99.99,,2013-02-20 16:18:00,
2013-02-20 11:24:00,32.0,10.4,29.62,NNW,338,1.2,-999.9,41,-99.99,,,-99.99,,2013-02-20 16:24:00,
2013-02-20 11:29:00,32.0,10.4,29.62,NNW,338,1.2,-999.9,41,-99.99,,,-99.99,,2013-02-20 16:29:00,
2013-02-20 11:37:00,32.0,8.6,29.62,NW,314,2.3,-999.9,38,-99.99,,,-99.99,,2013-02-20 16:37:00,
2013-02-20 11:44:00,32.0,10.4,29.62,NNW,337,9.2,-999.9,41,-99.99,,,-99.99,,2013-02-20 16:44:00,
2013-02-20 11:49:00,32.0,10.4,29.62,NNW,337,9.2,-999.9,41,-99.99,,,-99.99,,2013-02-20 16:49:00,
2013-02-20 11:58:00,30.2,8.6,29.61,NW,324,8.1,-999.9,40,-99.99,,,-99.99,,2013-02-20 16:58:00,
2013-02-20 12:04:00,32.0,8.6,29.61,NNW,334,15.0,-999.9,38,-99.99,,,-99.99,,2013-02-20 17:04:00,
2013-02-20 12:09:00,32.0,8.6,29.61,NNW,334,15.0,-999.9,38,-99.99,,,-99.99,,2013-02-20 17:09:00,
2013-02-20 12:17:00,32.0,8.6,29.61,NW,321,11.5,-999.9,38,-99.99,,,-99.99,,2013-02-20 17:17:00,
2013-02-20 12:24:00,30.2,8.6,29.61,NW,316,11.5,-999.9,40,-99.99,,,-99.99,,2013-02-20 17:24:00,
2013-02-20 12:30:00,32.0,8.6,29.60,NW,316,12.7,-999.9,38,-99.99,,,-99.99,,2013-02-20 17:30:00,
2013-02-20 12:38:00,32.0,8.6,29.60,NW,316,12.7,-999.9,38,-99.99,,,-99.99,,2013-02-20 17:38:00,
2013-02-20 12:44:00,30.2,6.8,29.60,NW,315,9.2,-999.9,37,-99.99,,,-99.99,,2013-02-20 17:44:00,
2013-02-20 12:50:00,30.2,6.8,29.60,NW,315,9.2,-999.9,37,-99.99,,,-99.99,,2013-02-20 17:50:00,
2013-02-20 12:58:00,30.2,6.8,29.61,NNW,334,10.4,-999.9,37,-99.99,,,-99.99,,2013-02-20 17:58:00,
2013-02-20 13:04:00,32.0,8.6,29.61,NW,305,9.2,-999.9,38,-99.99,,,-99.99,,2013-02-20 18:04:00,
2013-02-20 13:10:00,30.2,8.6,29.61,NW,313,9.2,-999.9,40,-99.99,,,-99.99,,2013-02-20 18:10:00,
2013-02-20 13:18:00,30.2,8.6,29.61,NW,313,9.2,-999.9,40,-99.99,,,-99.99,,2013-02-20 18:18:00,
2013-02-20 13:23:00,30.2,8.6,29.62,NNW,333,5.8,-999.9,40,-99.99,,,-99.99,,2013-02-20 18:23:00,
2013-02-20 13:29:00,30.2,8.6,29.62,NNW,333,5.8,-999.9,40,-99.99,,,-99.99,,2013-02-20 18:29:00,
2013-02-20 13:38:00,30.2,8.6,29.62,NNW,333,5.8,-999.9,40,-99.99,,,-99.99,,2013-02-20 18:38:00,
2013-02-20 13:43:00,30.2,6.8,29.61,NW,325,11.5,-999.9,37,-99.99,,,-99.99,,2013-02-20 18:43:00,
2013-02-20 13:50:00,32.0,8.6,29.61,NW,322,16.1,-999.9,38,-99.99,,,-99.99,,2013-02-20 18:50:00,
2013-02-20 13:57:00,32.0,8.6,29.61,NW,322,16.1,-999.9,38,-99.99,,,-99.99,,2013-02-20 18:57:00,
2013-02-20 14:04:00,30.2,8.6,29.61,NNW,339,11.5,-999.9,40,-99.99,,,-99.99,,2013-02-20 19:04:00,
2013-02-20 14:10:00,30.2,8.6,29.61,NNW,339,11.5,-999.9,40,-99.99,,,-99.99,,2013-02-20 19:10:00,
2013-02-20 14:18:00,32.0,10.4,29.62,NNW,332,12.7,-999.9,41,-99.99,,,-99.99,,2013-02-20 19:18:00,
2013-02-20 14:24:00,32.0,8.6,29.62,NNW,327,12.7,-999.9,38,-99.99,,,-99.99,,2013-02-20 19:24:00,
2013-02-20 14:30:00,32.0,8.6,29.62,NNW,327,12.7,-999.9,38,-99.99,,,-99.99,,2013-02-20 19:30:00,
2013-02-20 14:38:00,30.2,10.4,29.62,NNW,330,6.9,-999.9,44,-99.99,,,-99.99,,2013-02-20 19:38:00,
2013-02-20 14:44:00,30.2,10.4,29.62,NW,326,15.0,-999.9,44,-99.99,,,-99.99,,2013-02-20 19:44:00,
2013-02-20 14:49:00,30.2,10.4,29.62,NW,326,15.0,-999.9,44,-99.99,,,-99.99,,2013-02-20 19:49:00,
2013-02-20 14:58:00,30.2,10.4,29.62,NW,324,10.4,-999.9,44,-99.99,,,-99.99,,2013-02-20 19:58:00,
2013-02-20 15:04:00,30.2,10.4,29.63,NNW,331,13.8,-999.9,44,-99.99,,,-99.99,,2013-02-20 20:04:00,
2013-02-20 15:10:00,30.2,10.4,29.63,NNW,331,13.8,-999.9,44,-99.99,,,-99.99,,2013-02-20 20:10:00,
2013-02-20 15:18:00,30.2,10.4,29.63,NW,306,11.5,-999.9,44,-99.99,,,-99.99,,2013-02-20 20:18:00,
2013-02-20 15:24:00,30.2,10.4,29.63,NNW,344,38.0,-999.9,44,-99.99,,,-99.99,,2013-02-20 20:24:00,
2013-02-20 15:30:00,30.2,10.4,29.63,NNW,344,38.0,-999.9,44,-99.99,,,-99.99,,2013-02-20 20:30:00,
2013-02-20 15:38:00,30.2,10.4,29.65,NNW,339,21.9,-999.9,44,-99.99,,,-99.99,,2013-02-20 20:38:00,
2013-02-20 15:44:00,30.2,10.4,29.65,NW,313,10.4,-999.9,44,-99.99,,,-99.99,,2013-02-20 20:44:00,
2013-02-20 15:49:00,30.2,10.4,29.65,NW,313,10.4,-999.9,44,-99.99,,,-99.99,,2013-02-20 20:49:00,
2013-02-20 15:58:00,30.2,8.6,29.65,NW,312,5.8,-999.9,40,-99.99,,,-99.99,,2013-02-20 20:58:00,
2013-02-20 16:04:00,30.2,10.4,29.65,NW,321,8.1,-999.9,44,-99.99,,,-99.99,,2013-02-20 21:04:00,
2013-02-20 16:10:00,28.4,10.4,29.66,NNW,329,11.5,-999.9,47,-99.99,,,-99.99,,2013-02-20 21:10:00,
2013-02-20 16:18:00,28.4,10.4,29.66,NNW,329,11.5,-999.9,47,-99.99,,,-99.99,,2013-02-20 21:18:00,
2013-02-20 16:24:00,28.4,10.4,29.66,NW,308,9.2,-999.9,47,-99.99,,,-99.99,,2013-02-20 21:24:00,
2013-02-20 16:30:00,28.4,8.6,29.67,NW,309,6.9,-999.9,43,-99.99,,,-99.99,,2013-02-20 21:30:00,
2013-02-20 16:38:00,28.4,8.6,29.67,NW,309,6.9,-999.9,43,-99.99,,,-99.99,,2013-02-20 21:38:00,
2013-02-20 16:44:00,28.4,8.6,29.67,WNW,299,6.9,-999.9,43,-99.99,,,-99.99,,2013-02-20 21:44:00,
2013-02-20 16:50:00,28.4,8.6,29.67,WNW,299,6.9,-999.9,43,-99.99,,,-99.99,,2013-02-20 21:50:00,
2013-02-20 16:58:00,30.2,10.4,29.67,NNW,340,18.4,-999.9,44,-99.99,,,-99.99,,2013-02-20 21:58:00,
2013-02-20 17:04:00,30.2,10.4,29.67,NW,312,6.9,-999.9,44,-99.99,,,-99.99,,2013-02-20 22:04:00,
2013-02-20 17:10:00,30.2,10.4,29.68,WNW,289,6.9,-999.9,44,-99.99,,,-99.99,,2013-02-20 22:10:00,
2013-02-20 17:18:00,30.2,10.4,29.68,WNW,289,6.9,-999.9,44,-99.99,,,-99.99,,2013-02-20 22:18:00,
2013-02-20 17:24:00,28.4,8.6,29.68,NNW,329,17.3,-999.9,43,-99.99,,,-99.99,,2013-02-20 22:24:00,
2013-02-20 17:30:00,28.4,10.4,29.68,NW,312,5.8,-999.9,47,-99.99,,,-99.99,,2013-02-20 22:30:00,
2013-02-20 17:38:00,28.4,10.4,29.68,NW,312,5.8,-999.9,47,-99.99,,,-99.99,,2013-02-20 22:38:00,
2013-02-20 17:44:00,30.2,12.2,29.69,WNW,298,5.8,-999.9,47,-99.99,,,-99.99,,2013-02-20 22:44:00,
2013-02-20 17:49:00,30.2,12.2,29.69,WNW,298,5.8,-999.9,47,-99.99,,,-99.99,,2013-02-20 22:49:00,
2013-02-20 17:57:00,28.4,10.4,29.69,NW,311,6.9,-999.9,47,-99.99,,,-99.99,,2013-02-20 22:57:00,
2013-02-20 18:03:00,28.4,10.4,29.70,NW,312,12.7,-999.9,47,-99.99,,,-99.99,,2013-02-20 23:03:00,
2013-02-20 18:09:00,28.4,10.4,29.70,NW,312,12.7,-999.9,47,-99.99,,,-99.99,,2013-02-20 23:09:00,
2013-02-20 18:17:00,28.4,10.4,29.70,NW,309,10.4,-999.9,47,-99.99,,,-99.99,,2013-02-20 23:17:00,
2013-02-20 18:23:00,28.4,10.4,29.71,NW,306,11.5,-999.9,47,-99.99,,,-99.99,,2013-02-20 23:23:00,
2013-02-20 18:29:00,28.4,10.4,29.71,NW,306,11.5,-999.9,47,-99.99,,,-99.99,,2013-02-20 23:29:00,
2013-02-20 18:38:00,28.4,10.4,29.72,NW,321,10.4,-999.9,47,-99.99,,,-99.99,,2013-02-20 23:38:00,
2013-02-20 18:44:00,28.4,12.2,29.73,NNW,343,3.5,-999.9,51,-99.99,,,-99.99,,2013-02-20 23:44:00,
2013-02-20 18:50:00,28.4,12.2,29.73,NNW,343,3.5,-999.9,51,-99.99,,,-99.99,,2013-02-20 23:50:00,
2013-02-20 18:58:00,28.4,12.2,29.73,North,356,5.8,-999.9,51,-99.99,,,-99.99,,2013-02-20 23:58:00,
2013-02-20 19:04:00,28.4,12.2,29.74,NNW,330,4.6,-999.9,51,-99.99,,,-99.99,,2013-02-21 00:04:00,
2013-02-20 19:10:00,28.4,12.2,29.74,NNW,330,4.6,-999.9,51,-99.99,,,-99.99,,2013-02-21 00:10:00,
2013-02-20 19:18:00,28.4,12.2,29.74,NNW,333,5.8,-999.9,51,-99.99,,,-99.99,,2013-02-21 00:18:00,
2013-02-20 20:12:00,26.6,10.4,29.76,NW,323,10.4,-999.9,51,-99.99,,,-99.99,,2013-02-21 01:12:00,
2013-02-20 20:20:00,26.6,10.4,29.76,NW,323,10.4,-999.9,51,-99.99,,,-99.99,,2013-02-21 01:20:00,
2013-02-20 20:28:00,26.6,10.4,29.76,NNW,342,6.9,-999.9,51,-99.99,,,-99.99,,2013-02-21 01:28:00,
2013-02-20 20:33:00,26.6,10.4,29.76,NNW,335,15.0,-999.9,51,-99.99,,,-99.99,,2013-02-21 01:33:00,
2013-02-20 20:40:00,26.6,8.6,29.75,NNW,337,17.3,-999.9,47,-99.99,,,-99.99,,2013-02-21 01:40:00,
2013-02-20 20:48:00,26.6,8.6,29.75,NNW,337,17.3,-999.9,47,-99.99,,,-99.99,,2013-02-21 01:48:00,
2013-02-20 20:54:00,26.6,8.6,29.76,NNW,338,10.4,-999.9,47,-99.99,,,-99.99,,2013-02-21 01:54:00,
2013-02-20 21:00:00,26.6,8.6,29.76,NNW,338,19.6,-999.9,47,-99.99,,,-99.99,,2013-02-21 02:00:00,
2013-02-20 21:08:00,26.6,8.6,29.76,NNW,338,19.6,-999.9,47,-99.99,,,-99.99,,2013-02-21 02:08:00,
2013-02-20 21:14:00,26.6,8.6,29.75,North,352,13.8,-999.9,47,-99.99,,,-99.99,,2013-02-21 02:14:00,
2013-02-20 21:20:00,26.6,8.6,29.76,NW,323,10.4,-999.9,47,-99.99,,,-99.99,,2013-02-21 02:20:00,
2013-02-20 21:28:00,26.6,8.6,29.76,NW,323,10.4,-999.9,47,-99.99,,,-99.99,,2013-02-21 02:28:00,
2013-02-20 21:34:00,24.8,8.6,29.76,NNW,328,19.6,-999.9,50,-99.99,,,-99.99,,2013-02-21 02:34:00,
2013-02-20 21:40:00,24.8,8.6,29.77,North,4,9.2,-999.9,50,-99.99,,,-99.99,,2013-02-21 02:40:00,
2013-02-20 21:47:00,24.8,8.6,29.77,North,4,9.2,-999.9,50,-99.99,,,-99.99,,2013-02-21 02:47:00,
2013-02-20 21:54:00,24.8,8.6,29.77,NNW,339,3.5,-999.9,50,-99.99,,,-99.99,,2013-02-21 02:54:00,
2013-02-20 22:00:00,24.8,8.6,29.77,NNW,339,3.5,-999.9,50,-99.99,,,-99.99,,2013-02-21 03:00:00,
2013-02-20 22:08:00,24.8,8.6,29.77,North,350,12.7,-999.9,50,-99.99,,,-99.99,,2013-02-21 03:08:00,
2013-02-20 22:14:00,24.8,8.6,29.78,North,351,6.9,-999.9,50,-99.99,,,-99.99,,2013-02-21 03:14:00,
2013-02-20 22:19:00,24.8,8.6,29.78,North,351,6.9,-999.9,50,-99.99,,,-99.99,,2013-02-21 03:19:00,
2013-02-20 22:28:00,24.8,8.6,29.78,NW,320,13.8,-999.9,50,-99.99,,,-99.99,,2013-02-21 03:28:00,
2013-02-20 22:34:00,24.8,8.6,29.78,NW,321,10.4,-999.9,50,-99.99,,,-99.99,,2013-02-21 03:34:00,
2013-02-20 22:40:00,24.8,8.6,29.78,NW,321,15.0,-999.9,50,-99.99,,,-99.99,,2013-02-21 03:40:00,
2013-02-20 22:48:00,24.8,8.6,29.78,NW,321,15.0,-999.9,50,-99.99,,,-99.99,,2013-02-21 03:48:00,
2013-02-20 22:54:00,24.8,8.6,29.79,NW,318,8.1,-999.9,50,-99.99,,,-99.99,,2013-02-21 03:54:00,
2013-02-20 23:00:00,24.8,8.6,29.80,North,357,5.8,-999.9,50,-99.99,,,-99.99,,2013-02-21 04:00:00,
2013-02-20 23:10:00,24.8,8.6,29.80,North,357,5.8,-999.9,50,-99.99,,,-99.99,,2013-02-21 04:10:00,
2013-02-20 23:18:00,24.8,8.6,29.80,NNW,332,6.9,-999.9,50,-99.99,,,-99.99,,2013-02-21 04:18:00,
2013-02-20 23:24:00,24.8,8.6,29.80,NNW,334,13.8,-999.9,50,-99.99,,,-99.99,,2013-02-21 04:24:00,
2013-02-20 23:30:00,24.8,8.6,29.81,NNW,342,6.9,-999.9,50,-99.99,,,-99.99,,2013-02-21 04:30:00,
2013-02-20 23:38:00,24.8,8.6,29.81,NNW,342,6.9,-999.9,50,-99.99,,,-99.99,,2013-02-21 04:38:00,
2013-02-20 23:44:00,24.8,10.4,29.80,NNW,341,6.9,-999.9,54,-99.99,,,-99.99,,2013-02-21 04:44:00,
2013-02-20 23:50:00,24.8,10.4,29.80,NNW,340,9.2,-999.9,54,-99.99,,,-99.99,,2013-02-21 04:50:00,
2013-02-20 23:58:00,24.8,10.4,29.80,NNW,340,9.2,-999.9,54,-99.99,,,-99.99,,2013-02-21 04:58:00,